Location: Newark
(49.3000°N, 9.4667°E)
Time: 22:14:58
(UTC+00:00)

Tiros 1 - Pass Details

Date: 29 May 2019
Orbit: 631 x 664 km, 48.4° (Epoch: 24 June)

Event Time Altitude Azimuth Distance (km) Brightness Sun altitude
Rises 07:42:30 0° 218° (SW) 2,908 10.3 39.3°
Reaches altitude 10° 07:45:02 10° 207° (SSW) 2,005 9.7 39.7°
Maximum altitude 07:49:01 29° 148° (SSE) 1,156 9.5 40.3°
Drops below altitude 10° 07:53:02 10° 88° (E) 2,025 10.8 41.0°
Sets 07:55:36 0° 77° (ENE) 2,941 11.2 41.4°
